Tracking 35334 objects as of 13-Sep-2026
HD Live streaming from Space Station
objects crossing your sky now

SRH2

Track SRH2 now!
10-day predictions


NORAD ID: 58643
Int'l Code: 2023-204A
Launch date: December 24, 2023
Source: Germany (GER)
Launch site: AIR FORCE WESTERN TEST RANGE (AFWTR)
Your satellite tracking list
Your tracking list is empty




NASA's NSSDC Master Catalog

Two Line Element Set (TLE):
1 58643U 23204A   26252.82485608 0.00000000  00000-0  00000-0 0    08
2 58643  88.2026 116.3900 0003000  93.6041 266.3957 15.20490520    06
Source of the keplerian elements: MCCANTS